Location: Hawks Ness
(60.2333°N, 1.1667°W)
Time: 08:04:11
(UTC+00:00)

Cosmos 2219 Rocket - Pass Details

Date: 22 October 2019
Orbit: 828 x 846 km, 71.0° (Epoch: 16 November)

Event Time Altitude Azimuth Distance (km) Brightness Sun altitude
Exits shadow 05:45:06 12° 265° (W) 2,270 3.8 -10.0°
Maximum altitude 05:49:50 39° 332° (NNW) 1,230 2.8 -9.4°
Drops below altitude 10° 05:55:06 10° 41° (NE) 2,455 5.1 -8.8°
Sets 05:57:44 0° 49° (NE) 3,394 6.0 -8.5°
